Date,TemperatureHighF,TemperatureAvgF,TemperatureLowF,DewpointHighF,DewpointAvgF,DewpointLowF,HumidityHigh,HumidityAvg,HumidityLow,PressureMaxIn,PressureMinIn,WindSpeedMaxMPH,WindSpeedAvgMPH,GustSpeedMaxMPH,PrecipitationSumIn
2013-1-17,33,33,33,30,30,29,87,87,86,29.53,29.46,3,1,4,0.00
2013-1-18,33,31,29,29,28,26,93,89,83,29.42,29.06,8,3,9,0.00
2013-1-19,33,32,31,31,29,27,94,90,85,29.09,28.99,11,4,13,0.00
2013-1-20,32,31,30,30,29,26,94,91,85,29.07,28.92,8,2,8,0.00
2013-1-21,31,29,26,29,26,23,94,91,86,29.10,28.89,2,0,2,0.06
2013-1-22,34,32,25,31,28,22,89,87,84,29.24,29.09,10,4,11,0.21
2013-1-23,34,34,33,31,30,30,88,87,85,29.36,29.29,7,3,11,0.24
2013-1-24,36,34,33,30,28,27,88,78,70,29.66,29.46,2,1,6,0.24
2013-1-25,38,36,34,34,30,28,87,81,76,29.55,29.19,6,3,8,0.24
2013-1-26,46,43,38,42,40,37,96,87,81,29.38,29.16,7,3,8,0.40
2013-1-27,50,44,38,48,40,34,95,85,64,29.20,28.90,10,4,10,0.25
2013-1-28,49,44,34,46,40,30,90,88,85,29.34,29.15,5,3,8,0.32
2013-1-29,54,53,49,51,50,47,93,91,90,29.19,29.16,8,5,12,0.35
2013-1-30,48,46,44,45,38,36,94,75,67,29.55,29.20,9,4,9,0.54
2013-1-31,48,46,45,44,39,37,90,75,66,29.46,29.35,5,4,8,0.64
2013-2-1,45,40,37,40,37,33,93,87,79,29.18,29.06,5,2,5,0.81
2013-2-2,41,37,30,37,29,24,90,74,62,29.75,29.20,11,4,13,0.00
2013-2-3,49,45,39,45,40,33,87,84,79,29.59,29.45,6,2,9,0.01
2013-2-4,50,47,42,45,41,34,86,80,71,29.45,29.34,8,4,8,0.00
2013-2-5,43,40,35,37,34,28,80,77,68,29.17,28.96,8,5,13,0.09
2013-2-6,43,39,36,37,29,25,79,67,62,29.58,28.97,10,5,16,0.12
2013-2-7,41,38,32,35,32,25,87,79,68,29.60,29.51,4,2,6,0.13
2013-2-8,42,40,35,35,32,30,82,75,65,29.65,29.61,7,4,9,0.14
2013-2-9,40,38,37,35,34,33,88,86,84,29.62,29.44,2,1,4,0.15
2013-2-10,41,38,34,39,35,30,92,90,87,29.11,28.90,8,3,9,0.54
2013-2-11,34,34,33,30,30,30,88,87,86,29.32,28.99,4,2,6,0.77
2013-2-12,35,34,33,27,26,26,77,72,69,29.64,29.44,4,1,7,0.77
2013-2-13,38,35,33,35,29,27,89,79,71,29.68,29.55,6,2,9,0.78
2013-2-14,51,46,40,46,40,36,92,79,65,29.50,29.28,10,2,10,0.83
2013-2-15,50,42,37,39,36,32,88,79,60,29.71,29.60,4,1,5,0.83
2013-2-16,41,39,36,36,35,32,90,85,78,29.73,29.70,0,0,0,0.00
2013-2-17,46,40,37,39,35,32,92,82,62,29.69,29.61,5,2,8,0.00
2013-2-18,34,32,31,31,28,27,88,85,82,29.66,29.61,1,0,3,0.00
2013-2-19,35,31,27,29,26,22,85,82,77,29.62,29.58,0,0,0,0.00
2013-2-20,38,36,35,36,27,25,92,71,66,29.75,29.67,8,1,10,0.01
2013-2-21,36,34,33,23,20,19,63,56,52,29.73,29.67,7,1,8,0.02
2013-2-22,35,35,33,21,21,18,61,56,53,29.66,29.61,3,0,5,0.00
2013-2-23,36,35,34,23,22,21,62,59,53,29.69,29.63,2,0,4,0.00
2013-2-24,34,34,34,22,22,22,60,60,60,29.69,29.69,0,0,2,0.00
2013-2-25,34,34,34,22,22,22,60,60,60,29.69,29.69,0,0,2,0.00
2013-2-26,34,34,34,22,22,22,60,60,60,29.69,29.69,0,0,2,0.00
2013-2-27,43,39,36,35,33,30,88,79,66,30.01,29.93,4,0,4,0.00
2013-2-28,41,39,36,36,33,30,83,79,76,29.88,29.82,0,0,2,0.00
2013-3-1,45,42,39,40,34,29,89,72,62,29.89,29.83,2,0,8,0.02
2013-3-2,37,33,28,28,26,24,84,75,67,29.83,29.77,0,0,1,0.02
2013-3-3,46,37,26,36,31,22,87,79,66,29.78,29.65,2,0,3,0.00
2013-3-4,37,35,33,31,30,29,84,81,78,29.52,29.33,0,0,0,0.00
2013-3-5,50,44,39,43,39,36,91,81,71,29.25,29.17,0,0,0,0.00
2013-3-6,56,50,42,44,41,36,84,73,62,29.16,29.08,1,0,2,0.01
2013-3-7,49,47,45,46,44,41,92,90,83,29.10,28.97,3,1,4,0.19
2013-3-8,50,49,47,48,47,45,93,92,91,29.14,29.00,0,0,3,0.46
2013-3-9,46,43,39,43,39,34,92,85,82,29.25,29.16,6,3,8,0.48
2013-3-10,40,37,34,34,30,26,83,74,70,29.31,29.24,12,2,13,0.50
2013-3-11,34,32,29,26,21,17,73,65,53,29.32,29.26,2,0,2,0.00
2013-3-12,36,31,30,28,21,15,74,65,52,29.38,29.31,0,0,1,0.00
2013-3-13,45,37,31,30,27,24,79,66,45,29.49,29.33,0,0,0,0.00
2013-3-14,39,32,25,26,24,20,86,71,55,29.53,29.48,0,0,0,0.00
2013-3-15,47,46,44,40,40,40,85,82,78,29.32,29.32,0,0,1,0.02
2013-3-25,35,34,33,23,22,20,63,61,55,29.48,29.45,1,0,1,0.00
2013-3-26,36,34,33,23,22,21,65,60,55,29.46,29.42,0,0,0,0.00
2013-3-27,44,36,31,28,23,19,74,60,50,29.43,29.38,0,0,0,0.00
2013-3-28,40,36,28,29,23,18,82,62,47,29.48,29.37,0,0,0,0.00
2013-3-29,44,36,27,26,23,19,76,60,44,29.45,29.33,0,0,0,0.00
2013-3-30,44,37,34,30,26,23,71,63,52,29.51,29.33,0,0,0,0.00
2013-3-31,44,34,26,28,24,19,84,67,48,29.50,29.48,0,0,7,0.00